Flag for U.S.A. Weather past 2 weeks in Charleston, West Virginia, U.S.A.

Now
40 °F

Sunny.


Feels Like: 38 °F
Forecast: 37 / 62 °F
Wind: 3 mph from Southwest

Location: Yeager Airport

Current Time: Apr 27, 2015 at 8:42:20 AM

Latest Report: Apr 27, 2015 at 7:54 AM


Visibility: 10 mi

Pressure: 29.92 "Hg

Humidity: 83%

Dew point: 35 °F

Location of CharlestonLocation

Historic Weather in Charleston — Graph

°F

Charleston temperature yesterday

Maximum temperature yesterday: 63 °F (at 4:54 PM)
Minimum temperature yesterday: 43 °F (at 5:54 AM)
Average temperature yesterday: 51 °F

Past Weeks' High & Low Weather Summary

 TemperatureHumidityPressure
High85 °F (Apr 13, 5:54 PM)97% (Apr 14, 1:54 AM)30.27 "Hg (Apr 14, 1:54 AM)
Low32 °F (Apr 24, 6:54 AM)19% (Apr 12, 3:54 PM)29.50 "Hg (Apr 20, 4:54 PM)
Average58 °F60%29.94 "Hg
* Reported Apr 12 6:54 AM — Apr 27 6:54 AM, Charleston, Weather by CustomWeather, © 2015

Note: Actual official high and low records may vary slightly from our data, if they occured in-between our weather recording intervals... More about our weather records

Advertising

Charleston weather history for previous 24 hours

 ConditionsComfort  
Time TempWeatherWind HumidityBarometerVisibility
6:54 AM
Mon, Apr 27
36 °FClear.3 mph92%29.89 "Hg10 mi
5:54 AM39 °FClear.3 mph76%29.87 "Hg10 mi
4:54 AM39 °FClear.No wind76%29.86 "Hg10 mi
3:54 AM44 °FClear.3 mph58%29.85 "Hg10 mi
2:54 AM46 °FClear.5 mph54%29.85 "Hg10 mi
1:54 AM46 °FClear.5 mph56%29.85 "Hg10 mi
12:54 AM49 °FClear.No wind50%29.84 "Hg10 mi
11:54 PM
Sun, Apr 26
50 °FClear.6 mph52%29.83 "Hg10 mi
10:54 PM51 °FClear.3 mph48%29.81 "Hg10 mi
9:54 PM53 °FPassing clouds.6 mph45%29.80 "Hg10 mi
8:54 PM54 °FSunny.5 mph41%29.78 "Hg10 mi
7:54 PM59 °FPassing clouds.8 mph32%29.75 "Hg10 mi
6:54 PM62 °FPassing clouds.7 mph26%29.74 "Hg10 mi
5:54 PM63 °FPassing clouds.12 mph29%29.73 "Hg10 mi
4:54 PM63 °FPartly sunny.10 mph34%29.72 "Hg10 mi
3:54 PM60 °FBroken clouds.6 mph44%29.74 "Hg10 mi
2:54 PM56 °FBroken clouds.3 mph58%29.75 "Hg10 mi
1:54 PM55 °FBroken clouds.3 mph59%29.76 "Hg10 mi
12:54 PM52 °FBroken clouds.No wind66%29.77 "Hg10 mi
11:54 AM50 °FMostly cloudy.5 mph74%29.77 "Hg10 mi
10:56 AM47 °FCloudy.5 mph80%29.75 "Hg10 mi
9:54 AM46 °FLow clouds.No wind79%29.74 "Hg8 mi
8:54 AM45 °FMostly cloudy.5 mph86%29.72 "Hg10 mi
Weather by CustomWeather, © 2015

See weather overviewHow to use our weather pages